| time (UTC) | temp F | wind direction | speed MPH | gust MPH | rain 1hr in | rain 24hr in | rain mn in | humidity % | barometer mb |
| 20260903005530 | 77 | 215 | 2.0 | 6.0 | 0.00 | 0.00 | 0.00 | 67 | 1013.3 |
| 20260903005026 | 77 | 244 | 2.0 | 6.0 | 0.00 | 0.00 | 0.00 | 65 | 1013.3 |
| 20260903004526 | 78 | 262 | 2.0 | 6.0 | 0.00 | 0.00 | 0.00 | 64 | 1013.3 |
| 20260903004035 | 78 | 248 | 1.0 | 7.0 | 0.00 | 0.00 | 0.00 | 64 | 1013.3 |
| 20260903003540 | 78 | 217 | 3.0 | 7.0 | 0.00 | 0.00 | 0.00 | 64 | 1013.3 |
| 20260903003021 | 78 | 246 | 3.0 | 6.0 | 0.00 | 0.00 | 0.00 | 64 | 1013.3 |
| 20260903002523 | 78 | 205 | 3.0 | 7.0 | 0.00 | 0.00 | 0.00 | 65 | 1013.2 |
| 20260903002023 | 78 | 227 | 4.0 | 7.0 | 0.00 | 0.00 | 0.00 | 66 | 1013.3 |
| 20260903001521 | 78 | 240 | 3.0 | 8.0 | 0.00 | 0.00 | 0.00 | 66 | 1013.4 |
| 20260903001022 | 78 | 217 | 3.0 | 8.0 | 0.00 | 0.00 | 0.00 | 67 | 1013.4 |
| 20260903000526 | 78 | 243 | 4.0 | 7.0 | 0.00 | 0.00 | 0.00 | 66 | 1013.4 |
| 20260903000051 | 78 | 226 | 4.0 | 7.0 | 0.00 | 0.00 | 0.00 | 66 | 1013.4 |
| 20260902235554 | 79 | 206 | 3.0 | 7.0 | 0.00 | 0.00 | 0.00 | 66 | 1013.3 |
| 20260902235033 | 79 | 223 | 4.0 | 7.0 | 0.00 | 0.00 | 0.00 | 66 | 1013.3 |
| 20260902234553 | 79 | 211 | 3.0 | 8.0 | 0.00 | 0.00 | 0.00 | 65 | 1013.4 |
| 20260902234051 | 79 | 233 | 4.0 | 7.0 | 0.00 | 0.00 | 0.00 | 65 | 1013.4 |
| 20260902233535 | 80 | 240 | 3.0 | 7.0 | 0.00 | 0.00 | 0.00 | 66 | 1013.5 |
| 20260902233035 | 79 | 190 | 3.0 | 7.0 | 0.00 | 0.00 | 0.00 | 66 | 1013.5 |
| 20260902232535 | 79 | 194 | 4.0 | 8.0 | 0.00 | 0.00 | 0.00 | 66 | 1013.5 |
| 20260902232038 | 79 | 221 | 4.0 | 10.0 | 0.00 | 0.00 | 0.00 | 66 | 1013.6 |
| 20260902231541 | 79 | 211 | 4.0 | 10.0 | 0.00 | 0.00 | 0.00 | 66 | 1013.7 |
| 20260902231020 | 79 | 229 | 4.0 | 8.0 | 0.00 | 0.00 | 0.00 | 67 | 1013.7 |
| 20260902230521 | 80 | 215 | 4.0 | 7.0 | 0.00 | 0.00 | 0.00 | 66 | 1013.7 |
| 20260902230041 | 80 | 186 | 3.0 | 8.0 | 0.00 | 0.00 | 0.00 | 68 | 1013.7 |
| 20260902225523 | 80 | 308 | 3.0 | 10.0 | 0.00 | 0.00 | 0.00 | 66 | 1013.8 |
| 20260902225022 | 80 | 200 | 4.0 | 11.0 | 0.00 | 0.00 | 0.00 | 66 | 1013.8 |
| 20260902224527 | 80 | 203 | 4.0 | 11.0 | 0.00 | 0.00 | 0.00 | 66 | 1013.9 |
| 20260902224027 | 80 | 218 | 3.0 | 10.0 | 0.00 | 0.00 | 0.00 | 66 | 1013.9 |
| 20260902223526 | 80 | 223 | 4.0 | 11.0 | 0.00 | 0.00 | 0.00 | 66 | 1013.9 |
| 20260902223027 | 80 | 273 | 5.0 | 11.0 | 0.00 | 0.00 | 0.00 | 66 | 1014.0 |
| 20260902222526 | 80 | 195 | 3.0 | 8.0 | 0.00 | 0.00 | 0.00 | 65 | 1014.0 |
| 20260902222025 | 79 | 258 | 4.0 | 9.0 | 0.00 | 0.00 | 0.00 | 66 | 1014.2 |
| 20260902221531 | 79 | 244 | 5.0 | 9.0 | 0.00 | 0.00 | 0.00 | 66 | 1014.2 |
| 20260902221032 | 80 | 255 | 6.0 | 9.0 | 0.00 | 0.00 | 0.00 | 65 | 1014.1 |
| 20260902220530 | 80 | 207 | 4.0 | 8.0 | 0.00 | 0.00 | 0.00 | 64 | 1014.2 |
| 20260902220030 | 79 | 211 | 3.0 | 8.0 | 0.00 | 0.00 | 0.00 | 65 | 1014.2 |
| 20260902215535 | 79 | 252 | 4.0 | 8.0 | 0.00 | 0.00 | 0.00 | 66 | 1014.3 |
| 20260902215039 | 79 | 199 | 4.0 | 9.0 | 0.00 | 0.00 | 0.00 | 66 | 1014.3 |
| 20260902214525 | 79 | 234 | 4.0 | 9.0 | 0.00 | 0.00 | 0.00 | 66 | 1014.3 |
| 20260902214028 | 80 | 210 | 3.0 | 8.0 | 0.00 | 0.00 | 0.00 | 65 | 1014.4 |
| 20260902213529 | 79 | 209 | 3.0 | 10.0 | 0.00 | 0.00 | 0.00 | 65 | 1014.4 |
| 20260902213033 | 80 | 242 | 3.0 | 10.0 | 0.00 | 0.00 | 0.00 | 65 | 1014.3 |
| 20260902212541 | 80 | 223 | 4.0 | 8.0 | 0.00 | 0.00 | 0.00 | 66 | 1014.4 |
| 20260902212021 | 79 | 209 | 3.0 | 7.0 | 0.00 | 0.00 | 0.00 | 66 | 1014.4 |
| 20260902211522 | 79 | 228 | 3.0 | 8.0 | 0.00 | 0.00 | 0.00 | 66 | 1014.5 |
| 20260902211023 | 79 | 275 | 3.0 | 8.0 | 0.00 | 0.00 | 0.00 | 67 | 1014.5 |
| 20260902210524 | 79 | 205 | 3.0 | 10.0 | 0.00 | 0.00 | 0.00 | 67 | 1014.5 |
| 20260902210036 | 78 | 201 | 5.0 | 10.0 | 0.00 | 0.00 | 0.00 | 68 | 1014.5 |
| 20260902205526 | 78 | 272 | 5.0 | 9.0 | 0.00 | 0.00 | 0.00 | 67 | 1014.6 |
| 20260902205030 | 79 | 263 | 4.0 | 10.0 | 0.00 | 0.00 | 0.00 | 67 | 1014.6 |
| 20260902204535 | 78 | 205 | 4.0 | 10.0 | 0.00 | 0.00 | 0.00 | 67 | 1014.7 |
| 20260902204019 | 79 | 211 | 4.0 | 10.0 | 0.00 | 0.00 | 0.00 | 66 | 1014.7 |
| 20260902203524 | 79 | 213 | 4.0 | 10.0 | 0.00 | 0.00 | 0.00 | 66 | 1014.7 |
| 20260902203027 | 79 | 266 | 5.0 | 10.0 | 0.00 | 0.00 | 0.00 | 66 | 1014.8 |
| 20260902202535 | 79 | 232 | 4.0 | 7.0 | 0.00 | 0.00 | 0.00 | 66 | 1014.7 |
| 20260902202037 | 79 | 207 | 4.0 | 10.0 | 0.00 | 0.00 | 0.00 | 66 | 1014.8 |
| 20260902201544 | 79 | 265 | 4.0 | 10.0 | 0.00 | 0.00 | 0.00 | 67 | 1014.8 |
| 20260902201024 | 79 | 212 | 5.0 | 9.0 | 0.00 | 0.00 | 0.00 | 68 | 1014.8 |
| 20260902200524 | 79 | 208 | 5.0 | 9.0 | 0.00 | 0.00 | 0.00 | 67 | 1014.8 |
| 20260902200030 | 79 | 213 | 4.0 | 9.0 | 0.00 | 0.00 | 0.00 | 67 | 1014.9 |
| 20260902195533 | 79 | 196 | 3.0 | 11.0 | 0.00 | 0.00 | 0.00 | 68 | 1015.0 |
| 20260902195019 | 79 | 217 | 4.0 | 11.0 | 0.00 | 0.00 | 0.00 | 68 | 1015.1 |
| 20260902194526 | 79 | 232 | 4.0 | 10.0 | 0.00 | 0.00 | 0.00 | 67 | 1015.1 |
| 20260902194035 | 79 | 213 | 2.0 | 7.0 | 0.00 | 0.00 | 0.00 | 67 | 1015.2 |
| 20260902193519 | 79 | 209 | 4.0 | 9.0 | 0.00 | 0.00 | 0.00 | 67 | 1015.2 |
| 20260902193024 | 79 | 207 | 4.0 | 9.0 | 0.00 | 0.00 | 0.00 | 67 | 1015.3 |
| 20260902192524 | 79 | 172 | 4.0 | 8.0 | 0.00 | 0.00 | 0.00 | 67 | 1015.3 |
| 20260902192031 | 79 | 211 | 4.0 | 8.0 | 0.00 | 0.00 | 0.00 | 67 | 1015.3 |
| 20260902191535 | 79 | 226 | 3.0 | 8.0 | 0.00 | 0.00 | 0.00 | 67 | 1015.3 |
| 20260902191044 | 79 | 218 | 4.0 | 8.0 | 0.00 | 0.00 | 0.00 | 67 | 1015.4 |
| 20260902190523 | 80 | 208 | 2.0 | 8.0 | 0.00 | 0.00 | 0.00 | 67 | 1015.4 |
| 20260902190025 | 80 | 211 | 3.0 | 8.0 | 0.00 | 0.00 | 0.00 | 66 | 1015.4 |
| 20260902185526 | 80 | 195 | 3.0 | 8.0 | 0.00 | 0.00 | 0.00 | 65 | 1015.4 |
| 20260902185030 | 80 | 208 | 1.0 | 7.0 | 0.00 | 0.00 | 0.00 | 66 | 1015.4 |
| 20260902184544 | 80 | 231 | 2.0 | 7.0 | 0.00 | 0.00 | 0.00 | 65 | 1015.4 |
| 20260902184021 | 80 | 211 | 0.0 | 7.0 | 0.00 | 0.00 | 0.00 | 67 | 1015.4 |
| 20260902183548 | 79 | 190 | 1.0 | 7.0 | 0.00 | 0.00 | 0.00 | 69 | 1015.4 |
| 20260902183039 | 78 | 223 | 2.0 | 7.0 | 0.00 | 0.00 | 0.00 | 69 | 1015.4 |
| 20260902182547 | 79 | 209 | 3.0 | 7.0 | 0.00 | 0.00 | 0.00 | 67 | 1015.6 |
| 20260902182045 | 79 | 198 | 2.0 | 8.0 | 0.00 | 0.00 | 0.00 | 67 | 1015.6 |
| 20260902181535 | 79 | 177 | 0.0 | 8.0 | 0.00 | 0.00 | 0.00 | 68 | 1015.6 |
| 20260902181022 | 79 | 201 | 1.0 | 7.0 | 0.00 | 0.00 | 0.00 | 68 | 1015.6 |
| 20260902180522 | 79 | 186 | 1.0 | 8.0 | 0.00 | 0.00 | 0.00 | 68 | 1015.7 |
| 20260902180023 | 79 | 238 | 2.0 | 8.0 | 0.00 | 0.00 | 0.00 | 68 | 1015.7 |
| 20260902175525 | 78 | 192 | 1.0 | 7.0 | 0.00 | 0.00 | 0.00 | 69 | 1015.7 |
| 20260902175028 | 78 | 171 | 0.0 | 7.0 | 0.00 | 0.00 | 0.00 | 71 | 1015.7 |
| 20260902174529 | 78 | 203 | 3.0 | 7.0 | 0.00 | 0.00 | 0.00 | 70 | 1015.7 |
| 20260902174057 | 78 | 199 | 3.0 | 6.0 | 0.00 | 0.00 | 0.00 | 69 | 1015.8 |
| 20260902173539 | 78 | 220 | 2.0 | 6.0 | 0.00 | 0.00 | 0.00 | 70 | 1015.7 |
| 20260902173024 | 77 | 196 | 0.0 | 6.0 | 0.00 | 0.00 | 0.00 | 72 | 1015.8 |
| 20260902172525 | 76 | 184 | 1.0 | 6.0 | 0.00 | 0.00 | 0.00 | 73 | 1015.6 |
| 20260902172033 | 76 | 231 | 2.0 | 5.0 | 0.00 | 0.00 | 0.00 | 73 | 1015.6 |
| 20260902171537 | 76 | 219 | 3.0 | 6.0 | 0.00 | 0.00 | 0.00 | 73 | 1015.6 |
| 20260902171101 | 76 | 180 | 2.0 | 6.0 | 0.00 | 0.00 | 0.00 | 72 | 1015.5 |
| 20260902170543 | 76 | 212 | 1.0 | 8.0 | 0.00 | 0.00 | 0.00 | 72 | 1015.5 |
| 20260902170024 | 76 | 204 | 3.0 | 8.0 | 0.00 | 0.00 | 0.00 | 72 | 1015.6 |
| 20260902165526 | 77 | 211 | 1.0 | 6.0 | 0.00 | 0.00 | 0.00 | 71 | 1015.5 |
| 20260902165029 | 77 | 216 | 0.0 | 6.0 | 0.00 | 0.00 | 0.00 | 73 | 1015.5 |
| 20260902164529 | 76 | 211 | 2.0 | 6.0 | 0.00 | 0.00 | 0.00 | 72 | 1015.5 |
| 20260902164032 | 76 | 215 | 1.0 | 5.0 | 0.00 | 0.00 | 0.00 | 72 | 1015.4 |
| 20260902163554 | 76 | 207 | 1.0 | 5.0 | 0.00 | 0.00 | 0.00 | 72 | 1015.5 |
| 20260902163035 | 76 | 190 | 0.0 | 2.0 | 0.00 | 0.00 | 0.00 | 73 | 1015.5 |
| 20260902162520 | 76 | 169 | 0.0 | 2.0 | 0.00 | 0.00 | 0.00 | 72 | 1015.4 |
| 20260902162019 | 76 | 188 | 0.0 | 2.0 | 0.00 | 0.00 | 0.00 | 73 | 1015.5 |
| 20260902161527 | 75 | 182 | 0.0 | 2.0 | 0.00 | 0.00 | 0.00 | 73 | 1015.5 |
| 20260902161034 | 75 | 90 | 0.0 | 0.0 | 0.00 | 0.00 | 0.00 | 74 | 1015.5 |
| 20260902160520 | 74 | 90 | 0.0 | 2.0 | 0.00 | 0.00 | 0.00 | 75 | 1015.4 |
| 20260902160027 | 73 | 90 | 0.0 | 3.0 | 0.00 | 0.00 | 0.00 | 76 | 1015.3 |
| 20260902155532 | 73 | 34 | 1.0 | 4.0 | 0.00 | 0.00 | 0.00 | 77 | 1015.3 |
| 20260902155055 | 72 | 34 | 1.0 | 6.0 | 0.00 | 0.00 | 0.00 | 78 | 1015.3 |
| 20260902154542 | 71 | 77 | 0.0 | 6.0 | 0.00 | 0.00 | 0.00 | 80 | 1015.4 |
| 20260902154026 | 70 | 53 | 3.0 | 6.0 | 0.00 | 0.00 | 0.00 | 81 | 1015.4 |
| 20260902153555 | 69 | 44 | 3.0 | 6.0 | 0.00 | 0.00 | 0.00 | 83 | 1015.3 |
| 20260902153022 | 69 | 38 | 3.0 | 7.0 | 0.00 | 0.00 | 0.00 | 83 | 1015.3 |
| 20260902152524 | 68 | 54 | 4.0 | 7.0 | 0.00 | 0.00 | 0.00 | 84 | 1015.4 |
| 20260902152029 | 67 | 122 | 4.0 | 7.0 | 0.00 | 0.00 | 0.00 | 85 | 1015.4 |
| 20260902151536 | 67 | 88 | 3.0 | 7.0 | 0.00 | 0.00 | 0.00 | 86 | 1015.4 |
| 20260902151019 | 67 | 63 | 3.0 | 7.0 | 0.00 | 0.00 | 0.00 | 86 | 1015.4 |
| 20260902150529 | 66 | 66 | 3.0 | 7.0 | 0.00 | 0.00 | 0.00 | 87 | 1015.3 |
| 20260902150029 | 66 | 66 | 3.0 | 7.0 | 0.00 | 0.00 | 0.00 | 88 | 1015.4 |
| 20260902145532 | 65 | 57 | 3.0 | 6.0 | 0.00 | 0.00 | 0.00 | 89 | 1015.5 |
| 20260902145040 | 64 | 54 | 3.0 | 6.0 | 0.00 | 0.00 | 0.00 | 88 | 1015.5 |
| 20260902144549 | 64 | 54 | 3.0 | 6.0 | 0.00 | 0.00 | 0.00 | 89 | 1015.4 |
| 20260902144034 | 64 | 103 | 4.0 | 7.0 | 0.00 | 0.00 | 0.00 | 89 | 1015.4 |
| 20260902143541 | 64 | 49 | 3.0 | 7.0 | 0.00 | 0.00 | 0.00 | 89 | 1015.4 |
| 20260902143028 | 64 | 49 | 2.0 | 7.0 | 0.00 | 0.00 | 0.00 | 89 | 1015.5 |
| 20260902142525 | 64 | 76 | 4.0 | 7.0 | 0.00 | 0.00 | 0.00 | 90 | 1015.6 |
| 20260902142025 | 63 | 71 | 3.0 | 5.0 | 0.00 | 0.00 | 0.00 | 90 | 1015.5 |
| 20260902141520 | 63 | 71 | 2.0 | 7.0 | 0.00 | 0.00 | 0.00 | 90 | 1015.4 |
| 20260902141036 | 63 | 71 | 3.0 | 7.0 | 0.00 | 0.00 | 0.00 | 90 | 1015.3 |
| 20260902140538 | 63 | 68 | 4.0 | 7.0 | 0.00 | 0.00 | 0.00 | 91 | 1015.2 |
| 20260902140036 | 63 | 69 | 3.0 | 5.0 | 0.00 | 0.00 | 0.00 | 90 | 1015.2 |
| 20260902135538 | 63 | 69 | 3.0 | 5.0 | 0.00 | 0.00 | 0.00 | 90 | 1015.1 |
| 20260902135021 | 63 | 69 | 3.0 | 5.0 | 0.00 | 0.00 | 0.00 | 91 | 1015.1 |
| 20260902134528 | 63 | 69 | 3.0 | 7.0 | 0.00 | 0.00 | 0.00 | 91 | 1015.0 |
| 20260902134024 | 63 | 69 | 3.0 | 7.0 | 0.00 | 0.00 | 0.00 | 90 | 1015.0 |
| 20260902133519 | 63 | 69 | 1.0 | 4.0 | 0.00 | 0.00 | 0.00 | 90 | 1014.9 |
| 20260902133038 | 63 | 69 | 2.0 | 4.0 | 0.00 | 0.00 | 0.00 | 90 | 1014.8 |
| 20260902132539 | 63 | 69 | 2.0 | 7.0 | 0.00 | 0.00 | 0.00 | 90 | 1014.7 |
| 20260902132024 | 63 | 69 | 3.0 | 7.0 | 0.00 | 0.00 | 0.00 | 90 | 1014.6 |
| 20260902131543 | 63 | 55 | 3.0 | 6.0 | 0.00 | 0.00 | 0.00 | 90 | 1014.6 |
| 20260902131023 | 63 | 56 | 3.0 | 6.0 | 0.00 | 0.00 | 0.00 | 90 | 1014.7 |
| 20260902130550 | 63 | 49 | 4.0 | 6.0 | 0.00 | 0.00 | 0.00 | 91 | 1014.7 |
| 20260902130030 | 62 | 71 | 4.0 | 7.0 | 0.00 | 0.00 | 0.00 | 91 | 1014.7 |
| 20260902125525 | 62 | 53 | 5.0 | 8.0 | 0.00 | 0.00 | 0.00 | 91 | 1014.6 |
| 20260902125028 | 62 | 51 | 5.0 | 8.0 | 0.00 | 0.00 | 0.00 | 91 | 1014.6 |
| 20260902124528 | 62 | 64 | 4.0 | 8.0 | 0.00 | 0.00 | 0.00 | 91 | 1014.6 |
| 20260902124049 | 62 | 60 | 4.0 | 8.0 | 0.00 | 0.00 | 0.00 | 91 | 1014.6 |
| 20260902123526 | 62 | 73 | 5.0 | 7.0 | 0.00 | 0.00 | 0.00 | 92 | 1014.6 |
| 20260902123031 | 62 | 48 | 3.0 | 5.0 | 0.00 | 0.00 | 0.00 | 92 | 1014.6 |
| 20260902122529 | 62 | 45 | 3.0 | 7.0 | 0.00 | 0.00 | 0.00 | 92 | 1014.5 |
| 20260902122046 | 62 | 61 | 3.0 | 7.0 | 0.00 | 0.00 | 0.00 | 92 | 1014.5 |
| 20260902121533 | 62 | 63 | 4.0 | 8.0 | 0.00 | 0.00 | 0.00 | 92 | 1014.5 |
| 20260902121039 | 62 | 67 | 4.0 | 8.0 | 0.00 | 0.00 | 0.00 | 92 | 1014.5 |
| 20260902120523 | 62 | 69 | 3.0 | 5.0 | 0.00 | 0.00 | 0.00 | 92 | 1014.5 |
| 20260902120026 | 62 | 69 | 3.0 | 5.0 | 0.00 | 0.00 | 0.00 | 92 | 1014.6 |
| 20260902115527 | 62 | 69 | 3.0 | 8.0 | 0.00 | 0.00 | 0.00 | 92 | 1014.5 |
| 20260902115031 | 62 | 69 | 4.0 | 8.0 | 0.00 | 0.00 | 0.00 | 92 | 1014.5 |
| 20260902114527 | 62 | 64 | 3.0 | 7.0 | 0.00 | 0.00 | 0.00 | 92 | 1014.5 |
| 20260902114026 | 62 | 63 | 4.0 | 7.0 | 0.00 | 0.00 | 0.00 | 91 | 1014.5 |
| 20260902113527 | 62 | 64 | 4.0 | 8.0 | 0.00 | 0.00 | 0.00 | 91 | 1014.5 |
| 20260902113031 | 62 | 66 | 4.0 | 8.0 | 0.00 | 0.00 | 0.00 | 91 | 1014.5 |
| 20260902112531 | 62 | 59 | 4.0 | 8.0 | 0.00 | 0.00 | 0.00 | 91 | 1014.5 |
| 20260902112029 | 62 | 65 | 4.0 | 7.0 | 0.00 | 0.00 | 0.00 | 91 | 1014.5 |
| 20260902111523 | 62 | 63 | 3.0 | 7.0 | 0.00 | 0.00 | 0.00 | 91 | 1014.5 |
| 20260902111021 | 63 | 64 | 4.0 | 8.0 | 0.00 | 0.00 | 0.00 | 91 | 1014.6 |
| 20260902110547 | 63 | 51 | 3.0 | 8.0 | 0.00 | 0.00 | 0.00 | 91 | 1014.6 |
| 20260902110046 | 63 | 55 | 3.0 | 6.0 | 0.00 | 0.00 | 0.00 | 91 | 1014.6 |
| 20260902105526 | 63 | 64 | 4.0 | 7.0 | 0.00 | 0.00 | 0.00 | 91 | 1014.5 |
| 20260902105025 | 63 | 66 | 4.0 | 8.0 | 0.00 | 0.00 | 0.00 | 91 | 1014.5 |
| 20260902104524 | 63 | 61 | 4.0 | 8.0 | 0.00 | 0.00 | 0.00 | 91 | 1014.5 |
| 20260902104027 | 63 | 68 | 4.0 | 7.0 | 0.00 | 0.00 | 0.00 | 91 | 1014.6 |
| 20260902103526 | 63 | 52 | 3.0 | 6.0 | 0.00 | 0.00 | 0.00 | 91 | 1014.6 |
| 20260902103023 | 63 | 59 | 3.0 | 6.0 | 0.00 | 0.00 | 0.00 | 91 | 1014.6 |
| 20260902102525 | 63 | 47 | 2.0 | 5.0 | 0.00 | 0.00 | 0.00 | 90 | 1014.6 |
| 20260902102022 | 63 | 46 | 2.0 | 5.0 | 0.00 | 0.00 | 0.00 | 91 | 1014.7 |
| 20260902101525 | 63 | 46 | 3.0 | 5.0 | 0.00 | 0.00 | 0.00 | 91 | 1014.8 |
| 20260902101023 | 64 | 46 | 3.0 | 4.0 | 0.00 | 0.00 | 0.00 | 91 | 1014.9 |
| 20260902100527 | 64 | 46 | 3.0 | 4.0 | 0.00 | 0.00 | 0.00 | 90 | 1014.9 |
| 20260902100025 | 64 | 46 | 2.0 | 5.0 | 0.00 | 0.00 | 0.00 | 90 | 1014.9 |
| 20260902095533 | 64 | 46 | 3.0 | 5.0 | 0.00 | 0.00 | 0.00 | 90 | 1015.0 |
| 20260902095033 | 64 | 46 | 3.0 | 5.0 | 0.00 | 0.00 | 0.00 | 90 | 1014.9 |
| 20260902094558 | 64 | 47 | 3.0 | 4.0 | 0.00 | 0.00 | 0.00 | 90 | 1014.9 |
| 20260902094020 | 64 | 47 | 2.0 | 4.0 | 0.00 | 0.00 | 0.00 | 90 | 1014.9 |
| 20260902093538 | 64 | 47 | 3.0 | 5.0 | 0.00 | 0.00 | 0.00 | 90 | 1014.9 |
| 20260902093021 | 64 | 47 | 3.0 | 5.0 | 0.00 | 0.00 | 0.00 | 90 | 1015.0 |
| 20260902092516 | 64 | 52 | 3.0 | 5.0 | 0.00 | 0.00 | 0.00 | 90 | 1015.0 |
| 20260902092021 | 65 | 55 | 3.0 | 5.0 | 0.00 | 0.00 | 0.00 | 89 | 1015.1 |
| 20260902091522 | 65 | 55 | 3.0 | 5.0 | 0.00 | 0.00 | 0.00 | 90 | 1015.2 |
| 20260902091038 | 65 | 43 | 2.0 | 5.0 | 0.00 | 0.00 | 0.00 | 89 | 1015.2 |
| 20260902090538 | 65 | 43 | 3.0 | 5.0 | 0.00 | 0.00 | 0.00 | 89 | 1015.2 |
| 20260902090057 | 65 | 42 | 3.0 | 4.0 | 0.00 | 0.00 | 0.00 | 89 | 1015.1 |
| 20260902085542 | 65 | 42 | 2.0 | 4.0 | 0.00 | 0.00 | 0.00 | 89 | 1015.2 |
| 20260902085023 | 65 | 42 | 3.0 | 4.0 | 0.00 | 0.00 | 0.00 | 89 | 1015.2 |
| 20260902084528 | 65 | 269 | 2.0 | 3.0 | 0.00 | 0.00 | 0.00 | 88 | 1015.3 |
| 20260902084037 | 66 | 255 | 2.0 | 3.0 | 0.00 | 0.00 | 0.00 | 88 | 1015.3 |
| 20260902083538 | 66 | 248 | 1.0 | 2.0 | 0.00 | 0.00 | 0.00 | 88 | 1015.4 |
| 20260902083021 | 66 | 247 | 0.0 | 2.0 | 0.00 | 0.00 | 0.00 | 88 | 1015.3 |
| 20260902082531 | 66 | 248 | 1.0 | 2.0 | 0.00 | 0.00 | 0.00 | 88 | 1015.3 |
| 20260902082025 | 66 | 248 | 0.0 | 1.0 | 0.00 | 0.00 | 0.00 | 88 | 1015.3 |
| 20260902081547 | 66 | 247 | 0.0 | 0.0 | 0.00 | 0.00 | 0.00 | 88 | 1015.2 |
| 20260902081034 | 66 | 247 | 0.0 | 0.0 | 0.00 | 0.00 | 0.00 | 88 | 1015.2 |
| 20260902080538 | 67 | 247 | 0.0 | 0.0 | 0.00 | 0.00 | 0.00 | 88 | 1015.1 |
| 20260902080020 | 67 | 247 | 0.0 | 0.0 | 0.00 | 0.00 | 0.00 | 88 | 1015.1 |
| 20260902075547 | 67 | 247 | 0.0 | 0.0 | 0.00 | 0.00 | 0.00 | 87 | 1015.0 |
| 20260902075031 | 67 | 247 | 0.0 | 0.0 | 0.00 | 0.00 | 0.00 | 87 | 1015.1 |
| 20260902074529 | 67 | 247 | 0.0 | 0.0 | 0.00 | 0.00 | 0.00 | 87 | 1015.1 |
| 20260902074026 | 67 | 247 | 0.0 | 0.0 | 0.00 | 0.00 | 0.00 | 87 | 1015.1 |
| 20260902073528 | 67 | 247 | 0.0 | 0.0 | 0.00 | 0.00 | 0.00 | 86 | 1015.1 |
| 20260902073032 | 67 | 247 | 0.0 | 0.0 | 0.00 | 0.00 | 0.00 | 86 | 1015.1 |
| 20260902072531 | 67 | 246 | 0.0 | 0.0 | 0.00 | 0.00 | 0.00 | 86 | 1014.9 |
| 20260902072029 | 67 | 246 | 0.0 | 0.0 | 0.00 | 0.00 | 0.00 | 86 | 1014.9 |
| 20260902071533 | 68 | 246 | 0.0 | 0.0 | 0.00 | 0.00 | 0.00 | 85 | 1014.9 |
| 20260902071031 | 68 | 246 | 0.0 | 0.0 | 0.00 | 0.00 | 0.00 | 85 | 1014.8 |
| 20260902070532 | 68 | 246 | 0.0 | 0.0 | 0.00 | 0.00 | 0.00 | 86 | 1014.8 |
| 20260902070026 | 68 | 246 | 0.0 | 0.0 | 0.00 | 0.00 | 0.00 | 85 | 1014.7 |
| 20260902065525 | 68 | 246 | 0.0 | 0.0 | 0.00 | 0.00 | 0.00 | 85 | 1014.8 |
| 20260902065050 | 68 | 246 | 0.0 | 0.0 | 0.00 | 0.00 | 0.00 | 85 | 1014.8 |
| 20260902064547 | 68 | 246 | 0.0 | 0.0 | 0.00 | 0.00 | 0.00 | 85 | 1014.8 |
| 20260902064048 | 69 | 246 | 0.0 | 0.0 | 0.00 | 0.00 | 0.00 | 85 | 1014.7 |
| 20260902063531 | 69 | 246 | 0.0 | 0.0 | 0.00 | 0.00 | 0.00 | 84 | 1014.7 |
| 20260902063034 | 69 | 246 | 0.0 | 0.0 | 0.00 | 0.00 | 0.00 | 84 | 1014.8 |
| 20260902062532 | 69 | 246 | 0.0 | 0.0 | 0.00 | 0.00 | 0.00 | 84 | 1014.7 |
| 20260902062034 | 69 | 246 | 0.0 | 0.0 | 0.00 | 0.00 | 0.00 | 84 | 1014.6 |
| 20260902061531 | 69 | 246 | 0.0 | 2.0 | 0.00 | 0.00 | 0.00 | 84 | 1014.6 |
| 20260902061055 | 69 | 246 | 0.0 | 2.0 | 0.00 | 0.00 | 0.00 | 84 | 1014.6 |
| 20260902060537 | 69 | 246 | 0.0 | 3.0 | 0.00 | 0.00 | 0.00 | 84 | 1014.6 |
| 20260902060020 | 69 | 246 | 0.0 | 3.0 | 0.00 | 0.00 | 0.00 | 84 | 1014.5 |
| 20260902055522 | 70 | 246 | 0.0 | 4.0 | 0.00 | 0.00 | 0.00 | 84 | 1014.5 |
| 20260902055025 | 70 | 246 | 2.0 | 4.0 | 0.00 | 0.00 | 0.00 | 84 | 1014.5 |
| 20260902054521 | 70 | 233 | 1.0 | 3.0 | 0.00 | 0.00 | 0.00 | 85 | 1014.5 |
| 20260902054047 | 70 | 232 | 1.0 | 3.0 | 0.00 | 0.00 | 0.00 | 85 | 1014.5 |
| 20260902053528 | 70 | 232 | 0.0 | 3.0 | 0.00 | 0.00 | 0.00 | 85 | 1014.6 |
| 20260902053026 | 70 | 232 | 1.0 | 2.0 | 0.00 | 0.00 | 0.00 | 85 | 1014.5 |
| 20260902052527 | 70 | 225 | 0.0 | 2.0 | 0.00 | 0.00 | 0.00 | 85 | 1014.6 |
| 20260902052053 | 70 | 221 | 0.0 | 2.0 | 0.00 | 0.00 | 0.00 | 85 | 1014.6 |
| 20260902051529 | 70 | 221 | 0.0 | 3.0 | 0.00 | 0.00 | 0.00 | 84 | 1014.6 |
| 20260902051033 | 70 | 221 | 0.0 | 3.0 | 0.00 | 0.00 | 0.00 | 84 | 1014.7 |
| 20260902050552 | 70 | 221 | 0.0 | 2.0 | 0.00 | 0.00 | 0.00 | 84 | 1014.6 |
| 20260902050028 | 70 | 225 | 0.0 | 2.0 | 0.00 | 0.00 | 0.00 | 84 | 1014.6 |
| 20260902045530 | 70 | 227 | 0.0 | 2.0 | 0.00 | 0.00 | 0.00 | 84 | 1014.6 |
| 20260902045017 | 70 | 227 | 0.0 | 2.0 | 0.00 | 0.00 | 0.00 | 84 | 1014.5 |
| 20260902044523 | 70 | 227 | 0.0 | 1.0 | 0.00 | 0.00 | 0.00 | 84 | 1014.5 |
| 20260902044024 | 70 | 227 | 0.0 | 5.0 | 0.00 | 0.00 | 0.00 | 84 | 1014.5 |
| 20260902043530 | 70 | 227 | 0.0 | 5.0 | 0.00 | 0.00 | 0.00 | 84 | 1014.4 |
| 20260902043031 | 70 | 234 | 0.0 | 2.0 | 0.00 | 0.00 | 0.00 | 83 | 1014.3 |
| 20260902042534 | 70 | 246 | 0.0 | 5.0 | 0.00 | 0.00 | 0.00 | 83 | 1014.3 |
| 20260902042040 | 70 | 246 | 0.0 | 5.0 | 0.00 | 0.00 | 0.00 | 83 | 1014.2 |
| 20260902041541 | 70 | 215 | 0.0 | 4.0 | 0.00 | 0.00 | 0.00 | 83 | 1014.2 |
| 20260902041045 | 70 | 215 | 1.0 | 4.0 | 0.00 | 0.00 | 0.00 | 83 | 1014.0 |
| 20260902040520 | 70 | 223 | 1.0 | 3.0 | 0.00 | 0.00 | 0.00 | 83 | 1013.9 |
| 20260902040024 | 70 | 223 | 0.0 | 2.0 | 0.00 | 0.00 | 0.00 | 83 | 1013.8 |
| 20260902035527 | 70 | 270 | 0.0 | 2.0 | 0.00 | 0.00 | 0.00 | 83 | 1013.7 |
| 20260902035028 | 70 | 270 | 0.0 | 2.0 | 0.00 | 0.00 | 0.00 | 83 | 1013.5 |
| 20260902034530 | 70 | 270 | 0.0 | 5.0 | 0.00 | 0.00 | 0.00 | 83 | 1013.4 |
| 20260902034034 | 70 | 271 | 1.0 | 5.0 | 0.00 | 0.00 | 0.00 | 83 | 1013.3 |
| 20260902033542 | 70 | 250 | 0.0 | 4.0 | 0.00 | 0.00 | 0.00 | 83 | 1013.3 |
| 20260902033022 | 71 | 225 | 0.0 | 5.0 | 0.00 | 0.00 | 0.00 | 83 | 1013.1 |
| 20260902032529 | 71 | 267 | 1.0 | 6.0 | 0.00 | 0.00 | 0.00 | 84 | 1013.1 |
| 20260902032029 | 71 | 251 | 2.0 | 6.0 | 0.00 | 0.00 | 0.00 | 84 | 1013.0 |
| 20260902031530 | 71 | 269 | 2.0 | 4.0 | 0.00 | 0.00 | 0.00 | 83 | 1013.0 |
| 20260902031038 | 71 | 261 | 0.0 | 3.0 | 0.00 | 0.00 | 0.00 | 83 | 1013.0 |
| 20260902030519 | 71 | 231 | 1.0 | 4.0 | 0.00 | 0.00 | 0.00 | 83 | 1012.9 |
| 20260902030024 | 71 | 217 | 1.0 | 5.0 | 0.00 | 0.00 | 0.00 | 83 | 1012.9 |
| 20260902025528 | 71 | 259 | 1.0 | 5.0 | 0.00 | 0.00 | 0.00 | 83 | 1012.9 |
| 20260902025032 | 71 | 266 | 1.0 | 5.0 | 0.00 | 0.00 | 0.00 | 83 | 1012.9 |
| 20260902024534 | 71 | 246 | 1.0 | 7.0 | 0.00 | 0.00 | 0.00 | 83 | 1012.8 |
| 20260902024041 | 72 | 292 | 2.0 | 7.0 | 0.00 | 0.00 | 0.00 | 82 | 1012.8 |
| 20260902023520 | 72 | 282 | 1.0 | 7.0 | 0.00 | 0.00 | 0.00 | 82 | 1012.8 |
| 20260902023019 | 72 | 244 | 2.0 | 5.0 | 0.00 | 0.00 | 0.00 | 82 | 1012.8 |
| 20260902022524 | 72 | 266 | 2.0 | 7.0 | 0.00 | 0.00 | 0.00 | 81 | 1012.8 |
| 20260902022028 | 72 | 198 | 1.0 | 7.0 | 0.00 | 0.00 | 0.00 | 82 | 1012.7 |
| 20260902021527 | 72 | 267 | 3.0 | 7.0 | 0.00 | 0.00 | 0.00 | 81 | 1012.8 |
| 20260902021027 | 73 | 270 | 2.0 | 6.0 | 0.00 | 0.00 | 0.00 | 81 | 1012.8 |
| 20260902020529 | 73 | 309 | 2.0 | 6.0 | 0.00 | 0.00 | 0.00 | 80 | 1012.8 |
| 20260902020032 | 73 | 227 | 2.0 | 6.0 | 0.00 | 0.00 | 0.00 | 80 | 1012.8 |
| 20260902015538 | 73 | 229 | 3.0 | 7.0 | 0.00 | 0.00 | 0.00 | 79 | 1012.9 |
| 20260902015045 | 74 | 246 | 4.0 | 7.0 | 0.00 | 0.00 | 0.00 | 79 | 1012.8 |
| 20260902014525 | 74 | 269 | 2.0 | 8.0 | 0.00 | 0.00 | 0.00 | 78 | 1012.8 |
| 20260902014023 | 74 | 291 | 4.0 | 8.0 | 0.00 | 0.00 | 0.00 | 77 | 1012.8 |
| 20260902013546 | 75 | 284 | 4.0 | 6.0 | 0.00 | 0.00 | 0.00 | 76 | 1012.7 |
| 20260902013026 | 75 | 271 | 2.0 | 6.0 | 0.00 | 0.00 | 0.00 | 75 | 1012.8 |
| 20260902012527 | 75 | 279 | 3.0 | 7.0 | 0.00 | 0.00 | 0.00 | 74 | 1012.8 |
| 20260902012029 | 75 | 269 | 4.0 | 8.0 | 0.00 | 0.00 | 0.00 | 74 | 1012.8 |
| 20260902011538 | 76 | 197 | 4.0 | 8.0 | 0.00 | 0.00 | 0.00 | 73 | 1012.7 |
| 20260902011041 | 76 | 273 | 2.0 | 8.0 | 0.00 | 0.00 | 0.00 | 72 | 1012.8 |
| 20260902010523 | 77 | 271 | 3.0 | 8.0 | 0.00 | 0.00 | 0.00 | 71 | 1012.8 |
| 20260902010025 | 78 | 236 | 4.0 | 8.0 | 0.00 | 0.00 | 0.00 | 70 | 1012.8 |